When you browse on this site, cookies collect data to enhance your experience and personalize the content and advertising you see.
Visit our Privacy Policy to learn more. By continuing to use the site, you agree to this use of cookies and data.
  • In Switzerland
  • List of Countries
  • For 7 days
  • Water Temperature
  • Satellite Maps
  • Weather Map
  • Weather Widgets
  • user-avatar
    Login

    Hourly Weather Campo Grande

    Today, 17 November, Saturday

    Time Temperature Precipitation Wind Pressure Humidity
    00:00 +24°C° 0 mm 2 mps 708 mmHg 85%
    01:00 +24°C° 0 mm 2 mps 708 mmHg 84%
    02:00 +24°C° 0 mm 2 mps 708 mmHg 84%
    03:00 +23°C° 0 mm 2 mps 708 mmHg 85%
    04:00 +23°C° 0 mm 2 mps 708 mmHg 85%
    05:00 +22°C° 0 mm 3 mps 708 mmHg 86%
    06:00 +25°C° 0 mm 3 mps 709 mmHg 81%
    07:00 +26°C° 0 mm 4 mps 709 mmHg 77%
    08:00 +28°C° 0 mm 4 mps 710 mmHg 72%
    09:00 +29°C° 0 mm 4 mps 710 mmHg 68%
    10:00 +30°C° 0 mm 4 mps 710 mmHg 64%
    11:00 +33°C° 0 mm 4 mps 710 mmHg 59%
    12:00 +33°C° 1.4 mm 3 mps 709 mmHg 61%
    13:00 +31°C° 1.4 mm 3 mps 708 mmHg 63%
    14:00 +31°C° 1.4 mm 3 mps 707 mmHg 64%
    15:00 +31°C° 0.3 mm 2 mps 707 mmHg 66%
    16:00 +30°C° 0.3 mm 2 mps 707 mmHg 68%
    17:00 +30°C° 0.3 mm 2 mps 707 mmHg 70%
    18:00 +29°C° 0.3 mm 2 mps 707 mmHg 74%
    19:00 +27°C° 0.3 mm 2 mps 707 mmHg 78%
    20:00 +26°C° 0.3 mm 2 mps 708 mmHg 82%
    21:00 +26°C° 0 mm 2 mps 708 mmHg 83%
    22:00 +26°C° 0 mm 3 mps 708 mmHg 83%
    23:00 +25°C° 0 mm 3 mps 708 mmHg 84%

    Tomorrow, 18 November, Sunday

    Time Temperature Precipitation Wind Pressure Humidity
    00:00 +25°C° 0 mm 3 mps 708 mmHg 85%
    01:00 +25°C° 0 mm 3 mps 707 mmHg 86%
    02:00 +25°C° 0 mm 2 mps 707 mmHg 87%
    03:00 +24°C° 0 mm 2 mps 707 mmHg 88%
    04:00 +24°C° 0 mm 2 mps 707 mmHg 88%
    05:00 +24°C° 0 mm 2 mps 707 mmHg 89%
    06:00 +26°C° 0.4 mm 3 mps 707 mmHg 83%
    07:00 +28°C° 0.4 mm 3 mps 708 mmHg 78%
    08:00 +29°C° 0.4 mm 4 mps 709 mmHg 72%
    09:00 +30°C° 1.5 mm 4 mps 709 mmHg 70%
    10:00 +32°C° 1.5 mm 4 mps 709 mmHg 67%
    11:00 +32°C° 1.5 mm 4 mps 709 mmHg 65%
    12:00 +32°C° 2.1 mm 4 mps 708 mmHg 67%
    13:00 +32°C° 2.1 mm 4 mps 708 mmHg 68%
    14:00 +31°C° 2.1 mm 3 mps 707 mmHg 69%
    15:00 +30°C° 3.1 mm 2 mps 707 mmHg 74%
    16:00 +29°C° 3.1 mm 1 mps 707 mmHg 79%
    17:00 +28°C° 3.1 mm 1 mps 707 mmHg 84%
    18:00 +27°C° 2 mm 1 mps 707 mmHg 86%
    19:00 +26°C° 2 mm 2 mps 708 mmHg 87%
    20:00 +25°C° 2 mm 3 mps 708 mmHg 89%
    21:00 +25°C° 0.2 mm 3 mps 708 mmHg 90%
    22:00 +24°C° 0.2 mm 2 mps 708 mmHg 91%
    23:00 +24°C° 0.2 mm 2 mps 708 mmHg 92%

    Day after tomorrow, 19 November, Monday

    Time Temperature Precipitation Wind Pressure Humidity
    00:00 +24°C° 0.7 mm 2 mps 708 mmHg 92%
    01:00 +24°C° 0.7 mm 2 mps 707 mmHg 92%
    02:00 +24°C° 0.7 mm 2 mps 707 mmHg 92%
    03:00 +24°C° 0.1 mm 2 mps 707 mmHg 93%
    04:00 +24°C° 0.1 mm 1 mps 707 mmHg 93%
    05:00 +24°C° 0.1 mm 1 mps 707 mmHg 93%
    06:00 +24°C° 0.3 mm 2 mps 708 mmHg 92%
    07:00 +24°C° 0.3 mm 2 mps 708 mmHg 91%
    08:00 +25°C° 0.3 mm 2 mps 709 mmHg 90%
    09:00 +26°C° 1.1 mm 2 mps 709 mmHg 87%
    10:00 +26°C° 1.1 mm 2 mps 709 mmHg 83%
    11:00 +27°C° 1.1 mm 2 mps 709 mmHg 79%
    12:00 +28°C° 2.1 mm 2 mps 708 mmHg 78%
    13:00 +29°C° 2.1 mm 2 mps 708 mmHg 76%
    14:00 +29°C° 2.1 mm 2 mps 707 mmHg 74%
    15:00 +29°C° 1 mm 2 mps 707 mmHg 76%
    16:00 +29°C° 1 mm 1 mps 707 mmHg 78%
    17:00 +28°C° 1 mm 1 mps 706 mmHg 80%
    18:00 +27°C° 2.3 mm 1 mps 707 mmHg 83%
    19:00 +26°C° 2.3 mm 1 mps 707 mmHg 86%
    20:00 +25°C° 2.3 mm 1 mps 708 mmHg 89%
    21:00 +25°C° 0.8 mm 2 mps 708 mmHg 90%
    22:00 +24°C° 0.8 mm 2 mps 708 mmHg 91%
    23:00 +24°C° 0.8 mm 2 mps 709 mmHg 92%

    20 November, Tuesday

    Time Temperature Precipitation Wind Pressure Humidity
    00:00 +24°C° 0 mm 2 mps 708 mmHg 93%
    01:00 +24°C° 0 mm 2 mps 708 mmHg 94%
    02:00 +23°C° 0 mm 2 mps 707 mmHg 95%
    03:00 +22°C° 0 mm 3 mps 708 mmHg 95%
    04:00 +22°C° 0 mm 3 mps 708 mmHg 95%
    05:00 +22°C° 0 mm 3 mps 708 mmHg 94%
    06:00 +22°C° 0 mm 3 mps 708 mmHg 92%
    07:00 +22°C° 0 mm 3 mps 709 mmHg 90%
    08:00 +24°C° 0 mm 3 mps 710 mmHg 87%
    09:00 +25°C° 0 mm 3 mps 710 mmHg 84%
    10:00 +25°C° 0 mm 3 mps 710 mmHg 80%
    11:00 +26°C° 0 mm 3 mps 710 mmHg 77%
    12:00 +27°C° 0.1 mm 3 mps 709 mmHg 76%
    13:00 +27°C° 0.1 mm 3 mps 709 mmHg 74%
    14:00 +28°C° 0.1 mm 3 mps 708 mmHg 73%
    15:00 +27°C° 0 mm 3 mps 708 mmHg 76%
    16:00 +27°C° 0 mm 2 mps 708 mmHg 78%
    17:00 +26°C° 0 mm 2 mps 707 mmHg 81%
    18:00 +25°C° 0 mm 2 mps 708 mmHg 83%
    19:00 +25°C° 0 mm 2 mps 708 mmHg 86%
    20:00 +24°C° 0 mm 2 mps 709 mmHg 88%
    21:00 +24°C° 0 mm 2 mps 709 mmHg 89%
    22:00 +24°C° 0 mm 2 mps 709 mmHg 90%
    23:00 +23°C° 0 mm 1 mps 709 mmHg 91%

    21 November, Wednesday

    Time Temperature Precipitation Wind Pressure Humidity
    00:00 +23°C° 0 mm 2 mps 709 mmHg 92%
    01:00 +23°C° 0 mm 2 mps 708 mmHg 93%
    02:00 +23°C° 0 mm 2 mps 708 mmHg 94%
    03:00 +22°C° 0 mm 3 mps 708 mmHg 93%
    04:00 +21°C° 0 mm 3 mps 708 mmHg 93%
    05:00 +21°C° 0 mm 3 mps 708 mmHg 93%
    06:00 +22°C° 0 mm 3 mps 709 mmHg 90%
    07:00 +22°C° 0 mm 3 mps 710 mmHg 86%
    08:00 +24°C° 0 mm 3 mps 710 mmHg 83%
    09:00 +25°C° 0 mm 3 mps 710 mmHg 79%
    10:00 +26°C° 0 mm 2 mps 710 mmHg 75%
    11:00 +28°C° 0 mm 2 mps 709 mmHg 71%
    12:00 +28°C° 0 mm 2 mps 709 mmHg 70%
    13:00 +29°C° 0 mm 2 mps 708 mmHg 68%
    14:00 +29°C° 0 mm 2 mps 708 mmHg 67%
    15:00 +29°C° 0 mm 3 mps 707 mmHg 70%
    16:00 +28°C° 0 mm 3 mps 707 mmHg 73%
    17:00 +28°C° 0 mm 3 mps 707 mmHg 76%
    18:00 +26°C° 0 mm 3 mps 707 mmHg 80%
    19:00 +25°C° 0 mm 2 mps 707 mmHg 84%
    20:00 +24°C° 0 mm 2 mps 708 mmHg 88%
    21:00 +24°C° 0 mm 2 mps 708 mmHg 90%
    22:00 +23°C° 0 mm 2 mps 708 mmHg 91%
    23:00 +23°C° 0 mm 2 mps 708 mmHg 92%

    22 November, Thursday

    Time Temperature Precipitation Wind Pressure Humidity
    00:00 +23°C° 0 mm 2 mps 707 mmHg 93%
    01:00 +23°C° 0 mm 2 mps 707 mmHg 94%
    02:00 +21°C° 0 mm 2 mps 706 mmHg 95%
    03:00 +21°C° 0 mm 2 mps 706 mmHg 95%
    04:00 +21°C° 0 mm 2 mps 707 mmHg 95%
    05:00 +21°C° 0 mm 2 mps 707 mmHg 96%
    06:00 +24°C° 0 mm 2 mps 707 mmHg 89%
    07:00 +25°C° 0 mm 2 mps 708 mmHg 83%
    08:00 +27°C° 0 mm 3 mps 709 mmHg 76%
    09:00 +28°C° 0.6 mm 3 mps 708 mmHg 72%
    10:00 +29°C° 0.6 mm 3 mps 708 mmHg 69%
    11:00 +30°C° 0.6 mm 3 mps 708 mmHg 65%
    12:00 +30°C° 1 mm 2 mps 707 mmHg 65%
    13:00 +30°C° 1 mm 2 mps 707 mmHg 65%
    14:00 +31°C° 1 mm 2 mps 706 mmHg 65%
    15:00 +30°C° 0.9 mm 2 mps 706 mmHg 68%
    16:00 +30°C° 0.9 mm 2 mps 706 mmHg 71%
    17:00 +29°C° 0.9 mm 2 mps 706 mmHg 74%
    18:00 +27°C° 1.2 mm 2 mps 706 mmHg 79%
    19:00 +26°C° 1.2 mm 2 mps 706 mmHg 85%
    20:00 +24°C° 1.2 mm 2 mps 706 mmHg 91%
    21:00 +24°C° 0.3 mm 2 mps 707 mmHg 91%
    22:00 +24°C° 0.3 mm 2 mps 707 mmHg 92%
    23:00 +24°C° 0.3 mm 3 mps 707 mmHg 92%
    Show more